When you browse on this site, cookies collect data to enhance your experience and personalize the content and advertising you see.
Visit our Privacy Policy to learn more. By continuing to use the site, you agree to this use of cookies and data.
  • In Hungary
  • List of Countries
  • For 7 days
  • Water Temperature
  • Satellite Maps
  • Weather Map
  • News
  • Weather Widgets
  • user-avatar
    Login

    Hourly Weather Kalna

    Today, 17 November, Saturday

    Time Temperature Precipitation Wind Pressure Humidity
    00:00 -1°C° 0 mm 3 mps 737 mmHg 88%
    01:00 -1°C° 0 mm 3 mps 737 mmHg 89%
    02:00 -2°C° 0 mm 3 mps 737 mmHg 88%
    03:00 -2°C° 0 mm 3 mps 737 mmHg 88%
    04:00 -2°C° 0 mm 3 mps 737 mmHg 87%
    05:00 -4°C° 0 mm 3 mps 736 mmHg 84%
    06:00 -4°C° 0 mm 3 mps 736 mmHg 80%
    07:00 -4°C° 0 mm 3 mps 736 mmHg 77%
    08:00 -1°C° 0 mm 3 mps 736 mmHg 70%
    09:00 0°C° 0 mm 3 mps 736 mmHg 63%
    10:00 +1°C° 0 mm 3 mps 736 mmHg 56%
    11:00 +1°C° 0 mm 4 mps 736 mmHg 53%
    12:00 +3°C° 0 mm 4 mps 736 mmHg 50%
    13:00 +3°C° 0 mm 4 mps 736 mmHg 46%
    14:00 +2°C° 0 mm 3 mps 736 mmHg 49%
    15:00 +1°C° 0 mm 3 mps 735 mmHg 52%
    16:00 0°C° 0 mm 3 mps 735 mmHg 55%
    17:00 -1°C° 0 mm 3 mps 735 mmHg 56%
    18:00 -1°C° 0 mm 2 mps 735 mmHg 58%
    19:00 -2°C° 0 mm 2 mps 735 mmHg 60%
    20:00 -2°C° 0 mm 2 mps 735 mmHg 61%
    21:00 -2°C° 0 mm 2 mps 735 mmHg 62%
    22:00 -2°C° 0 mm 2 mps 735 mmHg 63%
    23:00 -2°C° 0 mm 2 mps 735 mmHg 64%

    Tomorrow, 18 November, Sunday

    Time Temperature Precipitation Wind Pressure Humidity
    00:00 -3°C° 0 mm 2 mps 734 mmHg 65%
    01:00 -3°C° 0 mm 2 mps 734 mmHg 67%
    02:00 -3°C° 0 mm 2 mps 734 mmHg 68%
    03:00 -1°C° 0 mm 1 mps 733 mmHg 70%
    04:00 -1°C° 0 mm 1 mps 733 mmHg 71%
    05:00 -1°C° 0 mm 1 mps 733 mmHg 72%
    06:00 -1°C° 0 mm 1 mps 732 mmHg 73%
    07:00 -1°C° 0 mm 1 mps 732 mmHg 75%
    08:00 0°C° 0 mm 1 mps 732 mmHg 70%
    09:00 +1°C° 0 mm 1 mps 732 mmHg 65%
    10:00 +2°C° 0 mm 1 mps 731 mmHg 60%
    11:00 +2°C° 0 mm 2 mps 731 mmHg 58%
    12:00 +3°C° 0 mm 2 mps 730 mmHg 56%
    13:00 +3°C° 0 mm 2 mps 729 mmHg 54%
    14:00 +3°C° 0 mm 2 mps 729 mmHg 55%
    15:00 +2°C° 0 mm 2 mps 728 mmHg 56%
    16:00 +1°C° 0 mm 2 mps 728 mmHg 57%
    17:00 -1°C° 0.1 mm 2 mps 727 mmHg 58%
    18:00 -1°C° 0.1 mm 2 mps 727 mmHg 59%
    19:00 -1°C° 0.1 mm 2 mps 727 mmHg 60%
    20:00 -2°C° 0 mm 2 mps 726 mmHg 64%
    21:00 -2°C° 0 mm 2 mps 726 mmHg 67%
    22:00 -2°C° 0 mm 2 mps 726 mmHg 71%
    23:00 -2°C° 0 mm 2 mps 726 mmHg 73%

    Day after tomorrow, 19 November, Monday

    Time Temperature Precipitation Wind Pressure Humidity
    00:00 -3°C° 0 mm 2 mps 725 mmHg 75%
    01:00 -1°C° 0 mm 1 mps 725 mmHg 77%
    02:00 -3°C° 0 mm 2 mps 725 mmHg 78%
    03:00 -3°C° 0 mm 2 mps 725 mmHg 79%
    04:00 -3°C° 0 mm 2 mps 724 mmHg 79%
    05:00 -3°C° 0 mm 2 mps 724 mmHg 81%
    06:00 -4°C° 0 mm 2 mps 724 mmHg 82%
    07:00 -4°C° 0 mm 2 mps 724 mmHg 84%
    08:00 -3°C° 0 mm 2 mps 724 mmHg 78%
    09:00 -2°C° 0 mm 3 mps 724 mmHg 72%
    10:00 -1°C° 0 mm 3 mps 724 mmHg 66%
    11:00 -1°C° 0 mm 3 mps 724 mmHg 66%
    12:00 0°C° 0 mm 3 mps 724 mmHg 65%
    13:00 0°C° 0 mm 3 mps 724 mmHg 65%
    14:00 0°C° 0.1 mm 3 mps 724 mmHg 69%
    15:00 -1°C° 0.1 mm 3 mps 724 mmHg 74%
    16:00 -1°C° 0.1 mm 3 mps 724 mmHg 78%
    17:00 -1°C° 0.1 mm 3 mps 724 mmHg 81%
    18:00 -2°C° 0.1 mm 3 mps 724 mmHg 84%
    19:00 -2°C° 0.1 mm 2 mps 724 mmHg 86%
    20:00 -2°C° 0 mm 2 mps 724 mmHg 87%
    21:00 -2°C° 0 mm 2 mps 724 mmHg 88%
    22:00 -2°C° 0 mm 2 mps 724 mmHg 88%
    23:00 -2°C° 0 mm 2 mps 724 mmHg 89%

    20 November, Tuesday

    Time Temperature Precipitation Wind Pressure Humidity
    00:00 -2°C° 0 mm 2 mps 724 mmHg 90%
    01:00 -3°C° 0 mm 2 mps 724 mmHg 90%
    02:00 -3°C° 0 mm 2 mps 724 mmHg 90%
    03:00 -3°C° 0 mm 2 mps 724 mmHg 91%
    04:00 -2°C° 0 mm 2 mps 723 mmHg 91%
    05:00 -2°C° 0 mm 2 mps 723 mmHg 90%
    06:00 -2°C° 0 mm 3 mps 723 mmHg 90%
    07:00 -2°C° 0 mm 3 mps 723 mmHg 90%
    08:00 -1°C° 0.1 mm 3 mps 723 mmHg 87%
    09:00 -1°C° 0.1 mm 3 mps 723 mmHg 84%
    10:00 0°C° 0.1 mm 3 mps 723 mmHg 82%
    11:00 0°C° 0.3 mm 3 mps 722 mmHg 82%
    12:00 -1°C° 0.3 mm 4 mps 721 mmHg 82%
    13:00 0°C° 0.3 mm 4 mps 721 mmHg 82%
    14:00 0°C° 0.2 mm 4 mps 720 mmHg 83%
    15:00 -1°C° 0.2 mm 4 mps 720 mmHg 85%
    16:00 -1°C° 0.2 mm 4 mps 720 mmHg 86%
    17:00 -1°C° 0.3 mm 4 mps 719 mmHg 87%
    18:00 -1°C° 0.3 mm 4 mps 719 mmHg 87%
    19:00 -1°C° 0.3 mm 4 mps 719 mmHg 88%
    20:00 -1°C° 0.3 mm 4 mps 719 mmHg 89%
    21:00 0°C° 0.3 mm 3 mps 718 mmHg 90%
    22:00 0°C° 0.3 mm 3 mps 718 mmHg 90%
    23:00 0°C° 0.4 mm 3 mps 718 mmHg 91%

    21 November, Wednesday

    Time Temperature Precipitation Wind Pressure Humidity
    00:00 0°C° 0.4 mm 3 mps 718 mmHg 92%
    01:00 +1°C° 0.4 mm 3 mps 717 mmHg 93%
    02:00 +1°C° 0.5 mm 3 mps 717 mmHg 93%
    03:00 +1°C° 0.5 mm 3 mps 717 mmHg 93%
    04:00 +1°C° 0.5 mm 3 mps 717 mmHg 94%
    05:00 +1°C° 0.1 mm 3 mps 717 mmHg 94%
    06:00 +2°C° 0.1 mm 2 mps 717 mmHg 94%
    07:00 +2°C° 0.1 mm 2 mps 717 mmHg 93%
    08:00 +3°C° 0 mm 2 mps 718 mmHg 92%
    09:00 +4°C° 0 mm 2 mps 719 mmHg 91%
    10:00 +5°C° 0 mm 2 mps 719 mmHg 89%
    11:00 +6°C° 0 mm 2 mps 720 mmHg 88%
    12:00 +6°C° 0 mm 2 mps 720 mmHg 86%
    13:00 +7°C° 0 mm 2 mps 721 mmHg 85%
    14:00 +6°C° 0 mm 2 mps 721 mmHg 88%
    15:00 +6°C° 0 mm 1 mps 721 mmHg 91%
    16:00 +4°C° 0 mm 1 mps 722 mmHg 95%
    17:00 +5°C° 0 mm 1 mps 722 mmHg 95%
    18:00 +5°C° 0 mm 1 mps 723 mmHg 95%
    19:00 +5°C° 0 mm 1 mps 723 mmHg 95%
    20:00 +5°C° 0 mm 1 mps 724 mmHg 95%
    21:00 +5°C° 0 mm 1 mps 724 mmHg 95%
    22:00 +4°C° 0 mm 1 mps 725 mmHg 95%
    23:00 +4°C° 0 mm 1 mps 725 mmHg 95%

    22 November, Thursday

    Time Temperature Precipitation Wind Pressure Humidity
    00:00 +4°C° 0 mm 1 mps 726 mmHg 95%
    01:00 +4°C° 0 mm 1 mps 726 mmHg 95%
    02:00 +4°C° 0 mm 1 mps 726 mmHg 95%
    03:00 +4°C° 0 mm 1 mps 726 mmHg 95%
    04:00 +4°C° 0 mm 1 mps 726 mmHg 95%
    05:00 +4°C° 0 mm 1 mps 727 mmHg 95%
    06:00 +3°C° 0 mm 1 mps 727 mmHg 95%
    07:00 +3°C° 0 mm 1 mps 727 mmHg 95%
    08:00 +4°C° 0 mm 1 mps 728 mmHg 93%
    09:00 +5°C° 0 mm 1 mps 728 mmHg 90%
    10:00 +4°C° 0 mm 2 mps 728 mmHg 87%
    11:00 +5°C° 0 mm 2 mps 729 mmHg 85%
    12:00 +5°C° 0 mm 2 mps 729 mmHg 84%
    13:00 +5°C° 0 mm 2 mps 729 mmHg 82%
    14:00 +5°C° 0 mm 2 mps 729 mmHg 85%
    15:00 +4°C° 0 mm 2 mps 729 mmHg 88%
    16:00 +3°C° 0 mm 2 mps 729 mmHg 91%
    17:00 +3°C° 0 mm 2 mps 729 mmHg 92%
    18:00 +3°C° 0 mm 2 mps 729 mmHg 92%
    19:00 +2°C° 0 mm 2 mps 729 mmHg 93%
    20:00 +2°C° 0 mm 2 mps 729 mmHg 93%
    21:00 +2°C° 0 mm 2 mps 730 mmHg 93%
    22:00 +2°C° 0 mm 2 mps 730 mmHg 93%
    23:00 +2°C° 0 mm 2 mps 730 mmHg 92%
    Show more